This is the latest recevied weather packets stored in our database for station/object N3TJJ-2. If no packets are shown the sender has not sent any weather packets the latest 10 day(s).
| Time | Temp. | Humidity | Pressure | Rain* | Wind** | Luminosity | Snow |
|---|---|---|---|---|---|---|---|
| 1788500231 | 24.44° C | 72% | 1013.5 hPa | 0 mm | - | - | - |
| 1788499903 | 24.44° C | 71% | 1013.6 hPa | 0 mm | - | - | - |
| 1788499492 | 23.89° C | 67% | 1013.8 hPa | 0 mm | - | - | - |
| 1788499157 | 23.89° C | 58% | 1013.8 hPa | 0 mm | - | - | - |
| 1788498774 | 23.33° C | 53% | 1013.7 hPa | 0 mm | - | - | - |
| 1788498411 | 23.89° C | 55% | 1013.7 hPa | 0 mm | - | - | - |
| 1788498070 | 24.44° C | 59% | 1013.6 hPa | 0 mm | - | - | - |
| 1788497691 | 24.44° C | 63% | 1013.6 hPa | 0 mm | - | - | - |
| 1788497343 | 24.44° C | 59% | 1013.5 hPa | 0 mm | - | - | - |
| 1788496978 | 24.44° C | 56% | 1013.4 hPa | 0 mm | - | - | - |
| 1788496619 | 23.89° C | 53% | 1013.6 hPa | 0 mm | - | - | - |
| 1788496270 | 23.89° C | 51% | 1013.7 hPa | 0 mm | - | - | - |
| 1788495893 | 23.33° C | 50% | 1013.8 hPa | 0 mm | - | - | - |
| 1788495547 | 23.33° C | 51% | 1013.8 hPa | 0 mm | - | - | - |
| 1788495178 | 23.33° C | 51% | 1013.9 hPa | 0 mm | - | - | - |
| 1788494810 | 23.33° C | 51% | 1014 hPa | 0 mm | - | - | - |
| 1788494474 | 23.33° C | 53% | 1014.1 hPa | 0 mm | - | - | - |
| 1788494090 | 23.89° C | 55% | 1014.2 hPa | 0 mm | - | - | - |
| 1788493730 | 23.89° C | 59% | 1014.3 hPa | 0 mm | - | - | - |
| 1788493374 | 23.89° C | 60% | 1014.3 hPa | 0 mm | - | - | - |
| 1788493011 | 24.44° C | 64% | 1014.5 hPa | 0 mm | - | - | - |
| 1788492670 | 25° C | 67% | 1014.7 hPa | 0 mm | - | - | - |
| 1788492290 | 25° C | 68% | 1014.5 hPa | 0 mm | - | - | - |
| 1788491940 | 25° C | 69% | 1014.4 hPa | 0 mm | - | - | - |
| 1788491572 | 25° C | 69% | 1014.8 hPa | 0 mm | - | - | - |
* Rain latest hour (hover to see other rain measurements)
** Current wind speed in m/s (hover to see current wind gust speed)